Year,Month,Day,Hour,Minute,Value (Times are PST for temperature in C)
2021,07,04,00,00,17.60
2021,07,04,00,01,17.60
2021,07,04,00,02,17.70
2021,07,04,00,03,17.70
2021,07,04,00,04,17.70
2021,07,04,00,05,17.80
2021,07,04,00,06,17.80
2021,07,04,00,07,17.80
2021,07,04,00,08,17.90
2021,07,04,00,09,17.90
2021,07,04,00,10,17.90
2021,07,04,00,11,17.90
2021,07,04,00,12,17.90
2021,07,04,00,13,17.90
2021,07,04,00,14,17.90
2021,07,04,00,15,17.80
2021,07,04,00,16,17.80
2021,07,04,00,17,17.80
2021,07,04,00,18,17.80
2021,07,04,00,19,17.70
2021,07,04,00,20,17.70
2021,07,04,00,21,17.70
2021,07,04,00,22,17.60
2021,07,04,00,23,17.60
2021,07,04,00,24,17.60
2021,07,04,00,25,17.50
2021,07,04,00,26,17.50
2021,07,04,00,27,17.50
2021,07,04,00,28,17.40
2021,07,04,00,29,17.40
2021,07,04,00,30,17.40
2021,07,04,00,31,17.30
2021,07,04,00,32,17.30
2021,07,04,00,33,17.30
2021,07,04,00,34,17.30
2021,07,04,00,35,17.20
2021,07,04,00,36,17.20
2021,07,04,00,37,17.20
2021,07,04,00,38,17.20
2021,07,04,00,39,17.20
2021,07,04,00,40,17.20
2021,07,04,00,41,17.20
2021,07,04,00,42,17.20
2021,07,04,00,43,17.20
2021,07,04,00,44,17.30
2021,07,04,00,45,17.30
2021,07,04,00,46,17.30
2021,07,04,00,47,17.30
2021,07,04,00,48,17.30
2021,07,04,00,49,17.30
2021,07,04,00,50,17.30
2021,07,04,00,51,17.30
2021,07,04,00,52,17.20
2021,07,04,00,53,17.20
2021,07,04,00,54,17.20
2021,07,04,00,55,17.20
2021,07,04,00,56,17.20
2021,07,04,00,57,17.20
2021,07,04,00,58,17.20
2021,07,04,00,59,17.20
2021,07,04,01,00,17.20
2021,07,04,01,01,17.20
2021,07,04,01,02,17.20
2021,07,04,01,03,17.20
2021,07,04,01,04,17.20
2021,07,04,01,05,17.20
2021,07,04,01,06,17.10
2021,07,04,01,07,17.10
2021,07,04,01,08,17.10
2021,07,04,01,09,17.10
2021,07,04,01,10,17.10
2021,07,04,01,11,17.10
2021,07,04,01,12,17.10
2021,07,04,01,13,17.00
2021,07,04,01,14,17.00
2021,07,04,01,15,17.00
2021,07,04,01,16,17.00
2021,07,04,01,17,17.00
2021,07,04,01,18,16.90
2021,07,04,01,19,16.90
2021,07,04,01,20,16.90
2021,07,04,01,21,16.90
2021,07,04,01,22,16.90
2021,07,04,01,23,16.90
2021,07,04,01,24,16.80
2021,07,04,01,25,16.80
2021,07,04,01,26,16.80
2021,07,04,01,27,16.90
2021,07,04,01,28,16.90
2021,07,04,01,29,16.90
2021,07,04,01,30,16.90
2021,07,04,01,31,16.90
2021,07,04,01,32,16.90
2021,07,04,01,33,16.90
2021,07,04,01,34,17.00
2021,07,04,01,35,16.90
2021,07,04,01,36,17.00
2021,07,04,01,37,17.00
2021,07,04,01,38,17.00
2021,07,04,01,39,16.90
2021,07,04,01,40,16.90
2021,07,04,01,41,16.90
2021,07,04,01,42,16.90
2021,07,04,01,43,16.90
2021,07,04,01,44,16.90
2021,07,04,01,45,16.80
2021,07,04,01,46,16.80
2021,07,04,01,47,16.80
2021,07,04,01,48,16.80
2021,07,04,01,49,16.70
2021,07,04,01,50,16.70
2021,07,04,01,51,16.70
2021,07,04,01,52,16.70
2021,07,04,01,53,16.70
2021,07,04,01,54,16.60
2021,07,04,01,55,16.60
2021,07,04,01,56,16.60
2021,07,04,01,57,16.60
2021,07,04,01,58,16.60
2021,07,04,01,59,16.60
2021,07,04,02,00,16.50
2021,07,04,02,01,16.50
2021,07,04,02,02,16.50
2021,07,04,02,03,16.50
2021,07,04,02,04,16.50
2021,07,04,02,05,16.50
2021,07,04,02,06,16.50
2021,07,04,02,07,16.50
2021,07,04,02,08,16.40
2021,07,04,02,09,16.40
2021,07,04,02,10,16.40
2021,07,04,02,11,16.40
2021,07,04,02,12,16.40
2021,07,04,02,13,16.40
2021,07,04,02,14,16.40
2021,07,04,02,15,16.40
2021,07,04,02,16,16.40
2021,07,04,02,17,16.40
2021,07,04,02,18,16.30
2021,07,04,02,19,16.30
2021,07,04,02,20,16.30
2021,07,04,02,21,16.30
2021,07,04,02,22,16.30
2021,07,04,02,23,16.30
2021,07,04,02,24,16.30
2021,07,04,02,25,16.30
2021,07,04,02,26,16.30
2021,07,04,02,27,16.30
2021,07,04,02,28,16.20
2021,07,04,02,29,16.20
2021,07,04,02,30,16.20
2021,07,04,02,31,16.20
2021,07,04,02,32,16.10
2021,07,04,02,33,16.10
2021,07,04,02,34,16.10
2021,07,04,02,35,16.10
2021,07,04,02,36,16.00
2021,07,04,02,37,16.00
2021,07,04,02,38,16.00
2021,07,04,02,39,15.90
2021,07,04,02,40,15.90
2021,07,04,02,41,15.90
2021,07,04,02,42,15.90
2021,07,04,02,43,15.80
2021,07,04,02,44,15.80
2021,07,04,02,45,15.80
2021,07,04,02,46,15.70
2021,07,04,02,47,15.70
2021,07,04,02,48,15.70
2021,07,04,02,49,15.70
2021,07,04,02,50,15.60
2021,07,04,02,51,15.60
2021,07,04,02,52,15.60
2021,07,04,02,53,15.50
2021,07,04,02,54,15.50
2021,07,04,02,55,15.40
2021,07,04,02,56,15.40
2021,07,04,02,57,15.40
2021,07,04,02,58,15.30
2021,07,04,02,59,15.30
2021,07,04,03,00,15.30
2021,07,04,03,01,15.20
2021,07,04,03,02,15.20
2021,07,04,03,03,15.20
2021,07,04,03,04,15.20
2021,07,04,03,05,15.20
2021,07,04,03,06,15.20
2021,07,04,03,07,15.10
2021,07,04,03,08,15.10
2021,07,04,03,09,15.10
2021,07,04,03,10,15.10
2021,07,04,03,11,15.10
2021,07,04,03,12,15.10
2021,07,04,03,13,15.10
2021,07,04,03,14,15.10
2021,07,04,03,15,15.10
2021,07,04,03,16,15.10
2021,07,04,03,17,15.10
2021,07,04,03,18,15.10
2021,07,04,03,19,15.10
2021,07,04,03,20,15.10
2021,07,04,03,21,15.10
2021,07,04,03,22,15.10
2021,07,04,03,23,15.10
2021,07,04,03,24,15.10
2021,07,04,03,25,15.20
2021,07,04,03,26,15.20
2021,07,04,03,27,15.20
2021,07,04,03,28,15.20
2021,07,04,03,29,15.20
2021,07,04,03,30,15.20
2021,07,04,03,31,15.20
2021,07,04,03,32,15.20
2021,07,04,03,33,15.20
2021,07,04,03,34,15.20
2021,07,04,03,35,15.20
2021,07,04,03,36,15.20
2021,07,04,03,37,15.20
2021,07,04,03,38,15.20
2021,07,04,03,39,15.20
2021,07,04,03,40,15.20
2021,07,04,03,41,15.30
2021,07,04,03,42,15.30
2021,07,04,03,43,15.30
2021,07,04,03,44,15.30
2021,07,04,03,45,15.30
2021,07,04,03,46,15.30
2021,07,04,03,47,15.30
2021,07,04,03,48,15.30
2021,07,04,03,49,15.30
2021,07,04,03,50,15.30
2021,07,04,03,51,15.30
2021,07,04,03,52,15.20
2021,07,04,03,53,15.20
2021,07,04,03,54,15.20
2021,07,04,03,55,15.10
2021,07,04,03,56,15.10
2021,07,04,03,57,15.10
2021,07,04,03,58,15.00
2021,07,04,03,59,15.00
2021,07,04,04,00,14.90
2021,07,04,04,01,14.90
2021,07,04,04,02,14.80
2021,07,04,04,03,14.80
2021,07,04,04,04,14.80
2021,07,04,04,05,14.80
2021,07,04,04,06,14.70
2021,07,04,04,07,14.70
2021,07,04,04,08,14.70
2021,07,04,04,09,14.70
2021,07,04,04,10,14.70
2021,07,04,04,11,14.70
2021,07,04,04,12,14.70
2021,07,04,04,13,14.60
2021,07,04,04,14,14.60
2021,07,04,04,15,14.60
2021,07,04,04,16,14.60
2021,07,04,04,17,14.50
2021,07,04,04,18,14.50
2021,07,04,04,19,14.50
2021,07,04,04,20,14.50
2021,07,04,04,21,14.40
2021,07,04,04,22,14.40
2021,07,04,04,23,14.40
2021,07,04,04,24,14.40
2021,07,04,04,25,14.40
2021,07,04,04,26,14.40
2021,07,04,04,27,14.40
2021,07,04,04,28,14.40
2021,07,04,04,29,14.40
2021,07,04,04,30,14.40
2021,07,04,04,31,14.40
2021,07,04,04,32,14.30
2021,07,04,04,33,14.30
2021,07,04,04,34,14.30
2021,07,04,04,35,14.30
2021,07,04,04,36,14.30
2021,07,04,04,37,14.20
2021,07,04,04,38,14.20
2021,07,04,04,39,14.20
2021,07,04,04,40,14.20
2021,07,04,04,41,14.10
2021,07,04,04,42,14.10
2021,07,04,04,43,14.10
2021,07,04,04,44,14.10
2021,07,04,04,45,14.10
2021,07,04,04,46,14.10
2021,07,04,04,47,14.00
2021,07,04,04,48,14.00
2021,07,04,04,49,14.00
2021,07,04,04,50,14.00
2021,07,04,04,51,13.90
2021,07,04,04,52,13.90
2021,07,04,04,53,13.90
2021,07,04,04,54,13.90
2021,07,04,04,55,13.90
2021,07,04,04,56,13.90
2021,07,04,04,57,13.90
2021,07,04,04,58,13.90
2021,07,04,04,59,13.90
2021,07,04,05,00,13.80
2021,07,04,05,01,13.80
2021,07,04,05,02,13.80
2021,07,04,05,03,13.80
2021,07,04,05,04,13.80
2021,07,04,05,05,13.80
2021,07,04,05,06,13.80
2021,07,04,05,07,13.80
2021,07,04,05,08,13.80
2021,07,04,05,09,13.80
2021,07,04,05,10,13.80
2021,07,04,05,11,13.80
2021,07,04,05,12,13.80
2021,07,04,05,13,13.80
2021,07,04,05,14,13.80
2021,07,04,05,15,13.80
2021,07,04,05,16,13.70
2021,07,04,05,17,13.70
2021,07,04,05,18,13.70
2021,07,04,05,19,13.70
2021,07,04,05,20,13.70
2021,07,04,05,21,13.80
2021,07,04,05,22,13.80
2021,07,04,05,23,13.80
2021,07,04,05,24,13.80
2021,07,04,05,25,13.80
2021,07,04,05,26,13.80
2021,07,04,05,27,13.70
2021,07,04,05,28,13.70
2021,07,04,05,29,13.70
2021,07,04,05,30,13.70
2021,07,04,05,31,13.70
2021,07,04,05,32,13.70
2021,07,04,05,33,13.70
2021,07,04,05,34,13.70
2021,07,04,05,35,13.70
2021,07,04,05,36,13.70
2021,07,04,05,37,13.70
2021,07,04,05,38,13.70
2021,07,04,05,39,13.70
2021,07,04,05,40,13.70
2021,07,04,05,41,13.70
2021,07,04,05,42,13.70
2021,07,04,05,43,13.70
2021,07,04,05,44,13.70
2021,07,04,05,45,13.70
2021,07,04,05,46,13.70
2021,07,04,05,47,13.70
2021,07,04,05,48,13.70
2021,07,04,05,49,13.70
2021,07,04,05,50,13.70
2021,07,04,05,51,13.70
2021,07,04,05,52,13.70
2021,07,04,05,53,13.70
2021,07,04,05,54,13.70
2021,07,04,05,55,13.70
2021,07,04,05,56,13.80
2021,07,04,05,57,13.80
2021,07,04,05,58,13.80
2021,07,04,05,59,13.80
2021,07,04,06,00,13.80
2021,07,04,06,01,13.80
2021,07,04,06,02,13.80
2021,07,04,06,03,13.80
2021,07,04,06,04,13.80
2021,07,04,06,05,13.80
2021,07,04,06,06,13.80
2021,07,04,06,07,13.80
2021,07,04,06,08,13.80
2021,07,04,06,09,13.90
2021,07,04,06,10,13.90
2021,07,04,06,11,13.90
2021,07,04,06,12,13.90
2021,07,04,06,13,13.90
2021,07,04,06,14,13.90
2021,07,04,06,15,13.90
2021,07,04,06,16,14.00
2021,07,04,06,17,14.00
2021,07,04,06,18,14.00
2021,07,04,06,19,14.00
2021,07,04,06,20,14.10
2021,07,04,06,21,14.10
2021,07,04,06,22,14.10
2021,07,04,06,23,14.10
2021,07,04,06,24,14.20
2021,07,04,06,25,14.20
2021,07,04,06,26,14.20
2021,07,04,06,27,14.20
2021,07,04,06,28,14.20
2021,07,04,06,29,14.20
2021,07,04,06,30,14.30
2021,07,04,06,31,14.30
2021,07,04,06,32,14.30
2021,07,04,06,33,14.40
2021,07,04,06,34,14.50
2021,07,04,06,35,14.50
2021,07,04,06,36,14.60
2021,07,04,06,37,14.60
2021,07,04,06,38,14.60
2021,07,04,06,39,14.60
2021,07,04,06,40,14.70
2021,07,04,06,41,14.70
2021,07,04,06,42,14.70
2021,07,04,06,43,14.70
2021,07,04,06,44,14.70
2021,07,04,06,45,14.70
2021,07,04,06,46,14.70
2021,07,04,06,47,14.70
2021,07,04,06,48,14.70
2021,07,04,06,49,14.70
2021,07,04,06,50,14.80
2021,07,04,06,51,14.80
2021,07,04,06,52,14.80
2021,07,04,06,53,14.80
2021,07,04,06,54,14.80
2021,07,04,06,55,14.80
2021,07,04,06,56,14.80
2021,07,04,06,57,14.80
2021,07,04,06,58,14.80
2021,07,04,06,59,14.90
2021,07,04,07,00,14.90
2021,07,04,07,01,15.00
2021,07,04,07,02,15.10
2021,07,04,07,03,15.10
2021,07,04,07,04,15.20
2021,07,04,07,05,15.20
2021,07,04,07,06,15.20
2021,07,04,07,07,15.30
2021,07,04,07,08,15.30
2021,07,04,07,09,15.30
2021,07,04,07,10,15.40
2021,07,04,07,11,15.40
2021,07,04,07,12,15.50
2021,07,04,07,13,15.60
2021,07,04,07,14,15.60
2021,07,04,07,15,15.70
2021,07,04,07,16,15.70
2021,07,04,07,17,15.80
2021,07,04,07,18,15.80
2021,07,04,07,19,15.90
2021,07,04,07,20,15.90
2021,07,04,07,21,15.90
2021,07,04,07,22,16.00
2021,07,04,07,23,16.10
2021,07,04,07,24,16.10
2021,07,04,07,25,16.20
2021,07,04,07,26,16.20
2021,07,04,07,27,16.30
2021,07,04,07,28,16.30
2021,07,04,07,29,16.30
2021,07,04,07,30,16.40
2021,07,04,07,31,16.50
2021,07,04,07,32,16.50
2021,07,04,07,33,16.60
2021,07,04,07,34,16.60
2021,07,04,07,35,16.70
2021,07,04,07,36,16.80
2021,07,04,07,37,16.80
2021,07,04,07,38,16.80
2021,07,04,07,39,16.90
2021,07,04,07,40,16.90
2021,07,04,07,41,16.90
2021,07,04,07,42,16.90
2021,07,04,07,43,17.00
2021,07,04,07,44,17.00
2021,07,04,07,45,17.10
2021,07,04,07,46,17.10
2021,07,04,07,47,17.10
2021,07,04,07,48,17.20
2021,07,04,07,49,17.20
2021,07,04,07,50,17.20
2021,07,04,07,51,17.20
2021,07,04,07,52,17.30
2021,07,04,07,53,17.30
2021,07,04,07,54,17.40
2021,07,04,07,55,17.50
2021,07,04,07,56,17.50
2021,07,04,07,57,17.60
2021,07,04,07,58,17.70
2021,07,04,07,59,17.70
2021,07,04,08,00,17.80
2021,07,04,08,01,18.00
2021,07,04,08,02,18.10
2021,07,04,08,03,18.20
2021,07,04,08,04,18.20
2021,07,04,08,05,18.20
2021,07,04,08,06,18.20
2021,07,04,08,07,18.20
2021,07,04,08,08,18.30
2021,07,04,08,09,18.30
2021,07,04,08,10,18.30
2021,07,04,08,11,18.40
2021,07,04,08,12,18.50
2021,07,04,08,13,18.60
2021,07,04,08,14,18.60
2021,07,04,08,15,18.70
2021,07,04,08,16,18.90
2021,07,04,08,17,19.00
2021,07,04,08,18,19.10
2021,07,04,08,19,19.10
2021,07,04,08,20,19.20
2021,07,04,08,21,19.30
2021,07,04,08,22,19.40
2021,07,04,08,23,19.50
2021,07,04,08,24,19.60
2021,07,04,08,25,19.60
2021,07,04,08,26,19.70
2021,07,04,08,27,19.70
2021,07,04,08,28,19.70
2021,07,04,08,29,19.80
2021,07,04,08,30,19.90
2021,07,04,08,31,20.00
2021,07,04,08,32,20.00
2021,07,04,08,33,20.10
2021,07,04,08,34,20.10
2021,07,04,08,35,20.20
2021,07,04,08,36,20.20
2021,07,04,08,37,20.20
2021,07,04,08,38,20.10
2021,07,04,08,39,20.10
2021,07,04,08,40,20.10
2021,07,04,08,41,20.10
2021,07,04,08,42,20.20
2021,07,04,08,43,20.30
2021,07,04,08,44,20.40
2021,07,04,08,45,20.40
2021,07,04,08,46,20.40
2021,07,04,08,47,20.50
2021,07,04,08,48,20.60
2021,07,04,08,49,20.70
2021,07,04,08,50,20.80
2021,07,04,08,51,20.80
2021,07,04,08,52,20.80
2021,07,04,08,53,20.70
2021,07,04,08,54,20.60
2021,07,04,08,55,20.60
2021,07,04,08,56,20.50
2021,07,04,08,57,20.50
2021,07,04,08,58,20.50
2021,07,04,08,59,20.50
2021,07,04,09,00,20.50
2021,07,04,09,01,20.60
2021,07,04,09,02,20.70
2021,07,04,09,03,20.70
2021,07,04,09,04,20.80
2021,07,04,09,05,20.80
2021,07,04,09,06,20.80
2021,07,04,09,07,20.70
2021,07,04,09,08,20.60
2021,07,04,09,09,20.50
2021,07,04,09,10,20.30
2021,07,04,09,11,20.20
2021,07,04,09,12,20.20
2021,07,04,09,13,20.20
2021,07,04,09,14,20.20
2021,07,04,09,15,20.20
2021,07,04,09,16,20.20
2021,07,04,09,17,20.20
2021,07,04,09,18,20.20
2021,07,04,09,19,20.20
2021,07,04,09,20,20.20
2021,07,04,09,21,20.30
2021,07,04,09,22,20.30
2021,07,04,09,23,20.30
2021,07,04,09,24,20.40
2021,07,04,09,25,20.40
2021,07,04,09,26,20.50
2021,07,04,09,27,20.70
2021,07,04,09,28,20.70
2021,07,04,09,29,20.70
2021,07,04,09,30,20.70
2021,07,04,09,31,20.70
2021,07,04,09,32,20.70
2021,07,04,09,33,20.70
2021,07,04,09,34,20.80
2021,07,04,09,35,20.80
2021,07,04,09,36,20.80
2021,07,04,09,37,20.80
2021,07,04,09,38,20.80
2021,07,04,09,39,20.80
2021,07,04,09,40,20.80
2021,07,04,09,41,20.80
2021,07,04,09,42,20.70
2021,07,04,09,43,20.70
2021,07,04,09,44,20.50
2021,07,04,09,45,20.40
2021,07,04,09,46,20.30
2021,07,04,09,47,20.30
2021,07,04,09,48,20.20
2021,07,04,09,49,20.10
2021,07,04,09,50,20.10
2021,07,04,09,51,20.20
2021,07,04,09,52,20.20
2021,07,04,09,53,20.10
2021,07,04,09,54,20.00
2021,07,04,09,55,20.00
2021,07,04,09,56,20.00
2021,07,04,09,57,20.00
2021,07,04,09,58,20.00
2021,07,04,09,59,19.90
2021,07,04,10,00,19.80
2021,07,04,10,01,19.60
2021,07,04,10,02,19.40
2021,07,04,10,03,19.30
2021,07,04,10,04,19.20
2021,07,04,10,05,19.20
2021,07,04,10,06,19.20
2021,07,04,10,07,19.20
2021,07,04,10,08,19.20
2021,07,04,10,09,19.30
2021,07,04,10,10,19.40
2021,07,04,10,11,19.40
2021,07,04,10,12,19.40
2021,07,04,10,13,19.50
2021,07,04,10,14,19.60
2021,07,04,10,15,19.70
2021,07,04,10,16,19.80
2021,07,04,10,17,19.70
2021,07,04,10,18,19.60
2021,07,04,10,19,19.50
2021,07,04,10,20,19.40
2021,07,04,10,21,19.40
2021,07,04,10,22,19.30
2021,07,04,10,23,19.30
2021,07,04,10,24,19.40
2021,07,04,10,25,19.40
2021,07,04,10,26,19.40
2021,07,04,10,27,19.40
2021,07,04,10,28,19.50
2021,07,04,10,29,19.60
2021,07,04,10,30,19.70
2021,07,04,10,31,19.70
2021,07,04,10,32,19.70
2021,07,04,10,33,19.70
2021,07,04,10,34,19.60
2021,07,04,10,35,19.50
2021,07,04,10,36,19.50
2021,07,04,10,37,19.50
2021,07,04,10,38,19.40
2021,07,04,10,39,19.40
2021,07,04,10,40,19.40
2021,07,04,10,41,19.40
2021,07,04,10,42,19.50
2021,07,04,10,43,19.60
2021,07,04,10,44,19.70
2021,07,04,10,45,19.70
2021,07,04,10,46,19.70
2021,07,04,10,47,19.60
2021,07,04,10,48,19.70
2021,07,04,10,49,19.70
2021,07,04,10,50,19.80
2021,07,04,10,51,19.90
2021,07,04,10,52,20.00
2021,07,04,10,53,20.00
2021,07,04,10,54,19.90
2021,07,04,10,55,19.90
2021,07,04,10,56,20.00
2021,07,04,10,57,20.00
2021,07,04,10,58,20.10
2021,07,04,10,59,20.10
2021,07,04,11,00,20.20
2021,07,04,11,01,20.20
2021,07,04,11,02,20.20
2021,07,04,11,03,20.20
2021,07,04,11,04,20.20
2021,07,04,11,05,20.20
2021,07,04,11,06,20.10
2021,07,04,11,07,20.10
2021,07,04,11,08,20.20
2021,07,04,11,09,20.20
2021,07,04,11,10,20.30
2021,07,04,11,11,20.30
2021,07,04,11,12,20.30
2021,07,04,11,13,20.30
2021,07,04,11,14,20.30
2021,07,04,11,15,20.20
2021,07,04,11,16,20.20
2021,07,04,11,17,20.20
2021,07,04,11,18,20.20
2021,07,04,11,19,20.30
2021,07,04,11,20,20.30
2021,07,04,11,21,20.30
2021,07,04,11,22,20.40
2021,07,04,11,23,20.50
2021,07,04,11,24,20.60
2021,07,04,11,25,20.60
2021,07,04,11,26,20.60
2021,07,04,11,27,20.70
2021,07,04,11,28,20.80
2021,07,04,11,29,20.90
2021,07,04,11,30,21.00
2021,07,04,11,31,21.10
2021,07,04,11,32,21.10
2021,07,04,11,33,21.20
2021,07,04,11,34,21.20
2021,07,04,11,35,21.20
2021,07,04,11,36,21.20
2021,07,04,11,37,21.10
2021,07,04,11,38,21.20
2021,07,04,11,39,21.10
2021,07,04,11,40,20.90
2021,07,04,11,41,20.90
2021,07,04,11,42,20.90
2021,07,04,11,43,20.90
2021,07,04,11,44,20.80
2021,07,04,11,45,20.70
2021,07,04,11,46,20.60
2021,07,04,11,47,20.60
2021,07,04,11,48,20.50
2021,07,04,11,49,20.40
2021,07,04,11,50,20.50
2021,07,04,11,51,20.50
2021,07,04,11,52,20.60
2021,07,04,11,53,20.60
2021,07,04,11,54,20.60
2021,07,04,11,55,20.70
2021,07,04,11,56,20.80
2021,07,04,11,57,20.90
2021,07,04,11,58,21.10
2021,07,04,11,59,21.10
2021,07,04,12,00,21.10
2021,07,04,12,01,21.10
2021,07,04,12,02,21.10
2021,07,04,12,03,21.10
2021,07,04,12,04,21.00
2021,07,04,12,05,20.90
2021,07,04,12,06,20.90
2021,07,04,12,07,20.90
2021,07,04,12,08,20.90
2021,07,04,12,09,20.90
2021,07,04,12,10,20.90
2021,07,04,12,11,20.80
2021,07,04,12,12,20.90
2021,07,04,12,13,20.90
2021,07,04,12,14,21.00
2021,07,04,12,15,21.10
2021,07,04,12,16,21.10
2021,07,04,12,17,21.00
2021,07,04,12,18,21.00
2021,07,04,12,19,21.00
2021,07,04,12,20,20.90
2021,07,04,12,21,20.90
2021,07,04,12,22,20.90
2021,07,04,12,23,21.00
2021,07,04,12,24,21.10
2021,07,04,12,25,20.90
2021,07,04,12,26,20.90
2021,07,04,12,27,21.00
2021,07,04,12,28,21.10
2021,07,04,12,29,21.30
2021,07,04,12,30,21.40
2021,07,04,12,31,21.30
2021,07,04,12,32,21.30
2021,07,04,12,33,21.30
2021,07,04,12,34,21.30
2021,07,04,12,35,21.20
2021,07,04,12,36,21.20
2021,07,04,12,37,21.20
2021,07,04,12,38,21.20
2021,07,04,12,39,21.10
2021,07,04,12,40,21.10
2021,07,04,12,41,21.00
2021,07,04,12,42,21.00
2021,07,04,12,43,21.10
2021,07,04,12,44,21.30
2021,07,04,12,45,21.40
2021,07,04,12,46,21.40
2021,07,04,12,47,21.30
2021,07,04,12,48,21.40
2021,07,04,12,49,21.40
2021,07,04,12,50,21.30
2021,07,04,12,51,21.20
2021,07,04,12,52,21.20
2021,07,04,12,53,21.20
2021,07,04,12,54,21.10
2021,07,04,12,55,21.10
2021,07,04,12,56,21.10
2021,07,04,12,57,21.10
2021,07,04,12,58,21.10
2021,07,04,12,59,21.10
2021,07,04,13,00,21.10
2021,07,04,13,01,21.00
2021,07,04,13,02,21.00
2021,07,04,13,03,20.90
2021,07,04,13,04,21.00
2021,07,04,13,05,21.10
2021,07,04,13,06,21.20
2021,07,04,13,07,21.20
2021,07,04,13,08,21.10
2021,07,04,13,09,21.10
2021,07,04,13,10,21.10
2021,07,04,13,11,21.10
2021,07,04,13,12,21.10
2021,07,04,13,13,21.10
2021,07,04,13,14,21.10
2021,07,04,13,15,21.10
2021,07,04,13,16,21.20
2021,07,04,13,17,21.30
2021,07,04,13,18,21.20
2021,07,04,13,19,21.10
2021,07,04,13,20,21.10
2021,07,04,13,21,21.20
2021,07,04,13,22,21.30
2021,07,04,13,23,21.40
2021,07,04,13,24,21.40
2021,07,04,13,25,21.30
2021,07,04,13,26,21.30
2021,07,04,13,27,21.40
2021,07,04,13,28,21.60
2021,07,04,13,29,21.60
2021,07,04,13,30,21.50
2021,07,04,13,31,21.40
2021,07,04,13,32,21.30
2021,07,04,13,33,21.10
2021,07,04,13,34,21.10
2021,07,04,13,35,21.00
2021,07,04,13,36,21.00
2021,07,04,13,37,20.90
2021,07,04,13,38,20.80
2021,07,04,13,39,20.70
2021,07,04,13,40,20.70
2021,07,04,13,41,20.60
2021,07,04,13,42,20.60
2021,07,04,13,43,20.60
2021,07,04,13,44,20.60
2021,07,04,13,45,20.60
2021,07,04,13,46,20.70
2021,07,04,13,47,20.70
2021,07,04,13,48,20.70
2021,07,04,13,49,20.80
2021,07,04,13,50,20.90
2021,07,04,13,51,21.00
2021,07,04,13,52,21.10
2021,07,04,13,53,21.10
2021,07,04,13,54,21.10
2021,07,04,13,55,21.00
2021,07,04,13,56,21.00
2021,07,04,13,57,21.00
2021,07,04,13,58,21.20
2021,07,04,13,59,21.20
2021,07,04,14,00,21.30
2021,07,04,14,01,21.40
2021,07,04,14,02,21.40
2021,07,04,14,03,21.30
2021,07,04,14,04,21.30
2021,07,04,14,05,21.30
2021,07,04,14,06,21.30
2021,07,04,14,07,21.30
2021,07,04,14,08,21.40
2021,07,04,14,09,21.50
2021,07,04,14,10,21.60
2021,07,04,14,11,21.60
2021,07,04,14,12,21.60
2021,07,04,14,13,21.60
2021,07,04,14,14,21.60
2021,07,04,14,15,21.70
2021,07,04,14,16,21.70
2021,07,04,14,17,21.70
2021,07,04,14,18,21.70
2021,07,04,14,19,21.70
2021,07,04,14,20,21.80
2021,07,04,14,21,22.00
2021,07,04,14,22,21.90
2021,07,04,14,23,21.80
2021,07,04,14,24,21.80
2021,07,04,14,25,21.70
2021,07,04,14,26,21.50
2021,07,04,14,27,21.40
2021,07,04,14,28,21.20
2021,07,04,14,29,21.10
2021,07,04,14,30,21.10
2021,07,04,14,31,21.10
2021,07,04,14,32,21.10
2021,07,04,14,33,21.10
2021,07,04,14,34,21.20
2021,07,04,14,35,21.20
2021,07,04,14,36,21.30
2021,07,04,14,37,21.40
2021,07,04,14,38,21.60
2021,07,04,14,39,21.60
2021,07,04,14,40,21.60
2021,07,04,14,41,21.50
2021,07,04,14,42,21.30
2021,07,04,14,43,21.30
2021,07,04,14,44,21.30
2021,07,04,14,45,21.40
2021,07,04,14,46,21.40
2021,07,04,14,47,21.40
2021,07,04,14,48,21.60
2021,07,04,14,49,21.70
2021,07,04,14,50,21.70
2021,07,04,14,51,21.60
2021,07,04,14,52,21.60
2021,07,04,14,53,21.50
2021,07,04,14,54,21.40
2021,07,04,14,55,21.50
2021,07,04,14,56,21.50
2021,07,04,14,57,21.60
2021,07,04,14,58,21.60
2021,07,04,14,59,21.70
2021,07,04,15,00,21.80
2021,07,04,15,01,21.90
2021,07,04,15,02,21.90
2021,07,04,15,03,21.80
2021,07,04,15,04,21.70
2021,07,04,15,05,21.70
2021,07,04,15,06,21.90
2021,07,04,15,07,21.80
2021,07,04,15,08,21.80
2021,07,04,15,09,21.90
2021,07,04,15,10,21.90
2021,07,04,15,11,21.80
2021,07,04,15,12,21.80
2021,07,04,15,13,21.80
2021,07,04,15,14,21.80
2021,07,04,15,15,21.80
2021,07,04,15,16,21.80
2021,07,04,15,17,21.70
2021,07,04,15,18,21.50
2021,07,04,15,19,21.50
2021,07,04,15,20,21.60
2021,07,04,15,21,21.60
2021,07,04,15,22,21.70
2021,07,04,15,23,21.70
2021,07,04,15,24,21.60
2021,07,04,15,25,21.60
2021,07,04,15,26,21.60
2021,07,04,15,27,21.60
2021,07,04,15,28,21.60
2021,07,04,15,29,21.70
2021,07,04,15,30,21.70
2021,07,04,15,31,21.70
2021,07,04,15,32,21.70
2021,07,04,15,33,21.70
2021,07,04,15,34,21.60
2021,07,04,15,35,21.60
2021,07,04,15,36,21.50
2021,07,04,15,37,21.40
2021,07,04,15,38,21.40
2021,07,04,15,39,21.40
2021,07,04,15,40,21.40
2021,07,04,15,41,21.50
2021,07,04,15,42,21.70
2021,07,04,15,43,21.80
2021,07,04,15,44,21.80
2021,07,04,15,45,21.90
2021,07,04,15,46,21.90
2021,07,04,15,47,22.00
2021,07,04,15,48,22.00
2021,07,04,15,49,21.90
2021,07,04,15,50,21.80
2021,07,04,15,51,21.70
2021,07,04,15,52,21.50
2021,07,04,15,53,21.30
2021,07,04,15,54,21.30
2021,07,04,15,55,21.30
2021,07,04,15,56,21.30
2021,07,04,15,57,21.50
2021,07,04,15,58,21.60
2021,07,04,15,59,21.70
2021,07,04,16,00,21.90
2021,07,04,16,01,21.90
2021,07,04,16,02,21.90
2021,07,04,16,03,22.00
2021,07,04,16,04,21.90
2021,07,04,16,05,21.90
2021,07,04,16,06,22.00
2021,07,04,16,07,22.00
2021,07,04,16,08,22.10
2021,07,04,16,09,22.10
2021,07,04,16,10,22.10
2021,07,04,16,11,22.20
2021,07,04,16,12,22.20
2021,07,04,16,13,22.30
2021,07,04,16,14,22.30
2021,07,04,16,15,22.30
2021,07,04,16,16,22.30
2021,07,04,16,17,22.40
2021,07,04,16,18,22.40
2021,07,04,16,19,22.30
2021,07,04,16,20,22.30
2021,07,04,16,21,22.20
2021,07,04,16,22,22.20
2021,07,04,16,23,22.20
2021,07,04,16,24,22.20
2021,07,04,16,25,22.20
2021,07,04,16,26,22.20
2021,07,04,16,27,22.20
2021,07,04,16,28,22.20
2021,07,04,16,29,22.20
2021,07,04,16,30,22.20
2021,07,04,16,31,22.30
2021,07,04,16,32,22.30
2021,07,04,16,33,22.40
2021,07,04,16,34,22.40
2021,07,04,16,35,22.50
2021,07,04,16,36,22.60
2021,07,04,16,37,22.70
2021,07,04,16,38,22.80
2021,07,04,16,39,22.80
2021,07,04,16,40,22.80
2021,07,04,16,41,22.80
2021,07,04,16,42,22.70
2021,07,04,16,43,22.50
2021,07,04,16,44,22.50
2021,07,04,16,45,22.40
2021,07,04,16,46,22.40
2021,07,04,16,47,22.30
2021,07,04,16,48,22.30
2021,07,04,16,49,22.30
2021,07,04,16,50,22.30
2021,07,04,16,51,22.20
2021,07,04,16,52,22.20
2021,07,04,16,53,22.10
2021,07,04,16,54,22.10
2021,07,04,16,55,22.00
2021,07,04,16,56,22.10
2021,07,04,16,57,22.20
2021,07,04,16,58,22.30
2021,07,04,16,59,22.40
2021,07,04,17,00,22.40
2021,07,04,17,01,22.50
2021,07,04,17,02,22.40
2021,07,04,17,03,22.40
2021,07,04,17,04,22.40
2021,07,04,17,05,22.50
2021,07,04,17,06,22.60
2021,07,04,17,07,22.70
2021,07,04,17,08,22.80
2021,07,04,17,09,22.80
2021,07,04,17,10,22.80
2021,07,04,17,11,22.90
2021,07,04,17,12,22.90
2021,07,04,17,13,22.90
2021,07,04,17,14,23.00
2021,07,04,17,15,23.10
2021,07,04,17,16,23.10
2021,07,04,17,17,23.20
2021,07,04,17,18,23.20
2021,07,04,17,19,23.30